This is the latest recevied weather packets stored in our database for station/object WX7FGZ-3. If no packets are shown the sender has not sent any weather packets the latest 10 day(s).
| Time | Temp. | Humidity | Pressure | Rain* | Wind** | Luminosity | Snow |
|---|---|---|---|---|---|---|---|
| 1777472242 | 8.33° C | 34% | 1015.4 hPa | 0 mm | - | - | - |
| 1777471942 | 7.78° C | 35% | 1015.4 hPa | 0 mm | - | - | - |
| 1777471341 | 7.22° C | 35% | 1015.5 hPa | 0 mm | - | - | - |
| 1777471041 | 6.67° C | 36% | 1015.4 hPa | 0 mm | - | - | - |
| 1777470741 | 5.56° C | 38% | 1015.4 hPa | 0 mm | - | - | - |
| 1777470441 | 5° C | 40% | 1015.6 hPa | 0 mm | - | - | - |
| 1777469540 | 4.44° C | 40% | 1015.6 hPa | 0 mm | - | - | - |
| 1777469239 | 4.44° C | 41% | 1015.5 hPa | 0 mm | - | - | - |
| 1777468939 | 4.44° C | 40% | 1015.6 hPa | 0 mm | - | - | - |
| 1777468639 | 3.89° C | 40% | 1015.5 hPa | 0 mm | - | - | - |
| 1777468339 | 3.33° C | 42% | 1015.4 hPa | 0 mm | - | - | - |
| 1777468038 | 2.78° C | 42% | 1015.4 hPa | 0 mm | - | - | - |
| 1777467738 | 2.78° C | 42% | 1015.5 hPa | 0 mm | - | - | - |
| 1777467438 | 2.22° C | 42% | 1015.6 hPa | 0 mm | - | - | - |
| 1777467137 | 2.22° C | 42% | 1015.5 hPa | 0 mm | - | - | - |
| 1777466837 | 2.78° C | 41% | 1015.3 hPa | 0 mm | - | - | - |
| 1777466537 | 2.78° C | 40% | 1015 hPa | 0 mm | - | - | - |
| 1777466236 | 2.78° C | 41% | 1014.9 hPa | 0 mm | - | - | - |
| 1777465936 | 2.78° C | 40% | 1014.9 hPa | 0 mm | - | - | - |
| 1777465636 | 2.78° C | 41% | 1014.8 hPa | 0 mm | - | - | - |
| 1777465035 | 3.33° C | 42% | 1014.7 hPa | 0 mm | - | - | - |
| 1777464735 | 3.33° C | 41% | 1014.8 hPa | 0 mm | - | - | - |
| 1777464434 | 3.33° C | 40% | 1014.9 hPa | 0 mm | - | - | - |
| 1777464134 | 3.33° C | 40% | 1014.8 hPa | 0 mm | - | - | - |
| 1777463834 | 3.33° C | 40% | 1014.9 hPa | 0 mm | - | - | - |
* Rain latest hour (hover to see other rain measurements)
** Current wind speed in m/s (hover to see current wind gust speed)